Weather History for Woodward, OK

Change the Weather History Date:

Wednesday, June 26, 2013

  Actual Average (KGAG) Record (KGAG)
Temperature  
Mean Temperature 88 °F -  
Max Temperature 100 °F 90 °F 113 °F (2011)
Min Temperature 75 °F 65 °F 47 °F (1958)
Cooling Degree Days 22    
Growing Degree Days 38 (Base 50)    
Moisture  
Dew Point 64 °F    
Average Humidity 46    
Maximum Humidity 69    
Minimum Humidity 25    
Precipitation  
Precipitation 0.00 in - - ()
Sea Level Pressure  
Sea Level Pressure 29.89 in    
Wind  
Wind Speed 11 mph (SE)    
Max Wind Speed 20 mph    
Max Gust Speed 25 mph    
Visibility 10 miles    
Events      
Averages and records for this station are not official NWS values.
T = Trace of Precipitation, MM = Missing Value Source: NWS Daily Summary

Daily Weather History Graph

Daily Weather History Graph

Search for Another Location

Airport:

Trip Planner

Search our weather history database for the weather conditions in past years. The results will help you decide how hot, cold, wet, or windy it might be!

Date:

Astronomy

Jun. 26, 2013 Rise Set
Actual Time 6:21 AM CDT 9:00 PM CDT
Civil Twilight 5:51 AM CDT 9:30 PM CDT
Nautical Twilight 5:13 AM CDT 10:08 PM CDT
Astronomical Twilight 4:31 AM CDT 10:50 PM CDT
Moon 11:32 PM CDT (6/26) 10:08 AM CDT (6/26)
Length of Visible Light 15h 39m
Length of Day
14h 38m
Waning Gibbous, 85% of the Moon is Illuminated
Jun 26
Waning Gibbous
Jun 29
Last Quarter
Jul 8
New
Jul 15
First Quarter
Jul 22
Full

Hourly Weather History & Observations

Time (CDT) Temp. Heat Index Dew Point Humidity Pressure Visibility Wind Dir Wind Speed Gust Speed Precip Events Conditions
12:15 AM 84.2 °F 85.6 °F 64.4 °F 51% 29.82 in 10.0 mi SSE 16.1 mph 24.2 mph N/A   Clear
12:35 AM 86.0 °F 87.3 °F 64.4 °F 48% 29.82 in 10.0 mi SSE 19.6 mph 24.2 mph N/A   Clear
12:55 AM 86.0 °F 87.3 °F 64.4 °F 48% 29.81 in 10.0 mi South 18.4 mph 24.2 mph N/A   Clear
1:15 AM 86.0 °F 86.6 °F 62.6 °F 45% 29.81 in 10.0 mi South 18.4 mph 25.3 mph N/A   Clear
1:35 AM 86.0 °F 86.6 °F 62.6 °F 45% 29.81 in 10.0 mi South 18.4 mph 25.3 mph N/A   Clear
1:55 AM 86.0 °F 86.6 °F 62.6 °F 45% 29.81 in 10.0 mi South 15.0 mph - N/A   Clear
2:15 AM 84.2 °F 85.0 °F 62.6 °F 48% 29.80 in 10.0 mi South 17.3 mph 21.9 mph N/A   Clear
2:35 AM 84.2 °F 85.0 °F 62.6 °F 48% 29.81 in 10.0 mi South 15.0 mph - N/A   Clear
2:55 AM 82.4 °F 83.4 °F 62.6 °F 51% 29.81 in 10.0 mi South 13.8 mph - N/A   Clear
3:15 AM 82.4 °F 82.9 °F 60.8 °F 48% 29.80 in 10.0 mi South 13.8 mph - N/A   Clear
3:35 AM 82.4 °F 82.9 °F 60.8 °F 48% 29.80 in 10.0 mi South 12.7 mph - N/A   Clear
3:55 AM 80.6 °F 81.8 °F 62.6 °F 54% 29.81 in 10.0 mi South 10.4 mph - N/A   Clear
4:15 AM 80.6 °F 81.8 °F 62.6 °F 54% 29.81 in 10.0 mi South 10.4 mph - N/A   Clear
4:35 AM 78.8 °F - 60.8 °F 54% 29.81 in 10.0 mi South 10.4 mph - N/A   Clear
4:55 AM 78.8 °F - 62.6 °F 57% 29.81 in 10.0 mi South 10.4 mph - N/A   Clear
5:15 AM 78.8 °F - 60.8 °F 54% 29.81 in 10.0 mi South 13.8 mph - N/A   Clear
5:35 AM 78.8 °F - 60.8 °F 54% 29.83 in 10.0 mi South 11.5 mph - N/A   Clear
5:55 AM 77.0 °F - 60.8 °F 57% 29.83 in 10.0 mi SSW 10.4 mph - N/A   Clear
6:15 AM 77.0 °F - 62.6 °F 61% 29.84 in 10.0 mi SSW 10.4 mph - N/A   Clear
6:35 AM 77.0 °F - 62.6 °F 61% 29.84 in 10.0 mi SSW 8.1 mph - N/A   Clear
6:55 AM 77.0 °F - 62.6 °F 61% 29.85 in 10.0 mi SSW 6.9 mph - N/A   Clear
7:15 AM 75.2 °F - 62.6 °F 65% 29.86 in 10.0 mi NE 3.5 mph - N/A   Clear
7:35 AM 75.2 °F - 64.4 °F 69% 29.87 in 10.0 mi Calm Calm - N/A   Clear
7:55 AM 78.8 °F - 64.4 °F 61% 29.88 in 10.0 mi Calm Calm - N/A   Clear
8:15 AM 78.8 °F - 64.4 °F 61% 29.89 in 10.0 mi Calm Calm - N/A   Clear
8:35 AM 78.8 °F - 64.4 °F 61% 29.90 in 10.0 mi ENE 4.6 mph - N/A   Clear
8:55 AM 80.6 °F 82.3 °F 64.4 °F 58% 29.91 in 10.0 mi ENE 4.6 mph - N/A   Clear
9:15 AM 82.4 °F 84.6 °F 66.2 °F 58% 29.91 in 10.0 mi East 4.6 mph - N/A   Clear
9:55 AM 86.0 °F 87.3 °F 64.4 °F 48% 29.92 in 10.0 mi ESE 5.8 mph - N/A   Clear
10:15 AM 87.8 °F 89.4 °F 64.4 °F 46% 29.92 in 10.0 mi East 5.8 mph - N/A   Clear
10:35 AM 87.8 °F 89.4 °F 64.4 °F 46% 29.92 in 10.0 mi South 5.8 mph - N/A   Clear
10:55 AM 87.8 °F 89.4 °F 64.4 °F 46% 29.92 in 10.0 mi South 8.1 mph - N/A   Clear
11:15 AM 89.6 °F 91.1 °F 64.4 °F 43% 29.92 in 10.0 mi SE 5.8 mph - N/A   Clear
11:35 AM 89.6 °F 91.1 °F 64.4 °F 43% 29.93 in 10.0 mi SE 4.6 mph - N/A   Clear
11:55 AM 91.4 °F 93.2 °F 64.4 °F 41% 29.93 in 10.0 mi SE 5.8 mph - N/A   Clear
12:15 PM 91.4 °F 93.2 °F 64.4 °F 41% 29.93 in 10.0 mi East 4.6 mph - N/A   Clear
12:35 PM 91.4 °F 92.1 °F 62.6 °F 38% 29.93 in 10.0 mi ESE 3.5 mph - N/A   Clear
12:55 PM 93.2 °F 94.1 °F 62.6 °F 36% 29.93 in 10.0 mi East 4.6 mph - N/A   Clear
1:15 PM 95.0 °F 97.0 °F 64.4 °F 36% 29.93 in 10.0 mi East 6.9 mph - N/A   Clear
1:35 PM 96.8 °F 99.0 °F 64.4 °F 34% 29.93 in 10.0 mi ESE 8.1 mph - N/A   Clear
1:55 PM 96.8 °F 99.0 °F 64.4 °F 34% 29.92 in 10.0 mi SE 9.2 mph - N/A   Clear
2:15 PM 98.6 °F 101.0 °F 64.4 °F 32% 29.92 in 10.0 mi East 8.1 mph - N/A   Clear
2:35 PM - - - N/A% 29.92 in 10.0 mi East 9.2 mph 16.1 mph N/A   Clear
2:55 PM 98.6 °F 100.0 °F 62.6 °F 30% 29.92 in 10.0 mi East 11.5 mph 16.1 mph N/A   Clear
3:15 PM 98.6 °F 100.0 °F 62.6 °F 30% 29.91 in 10.0 mi ESE 10.4 mph - N/A   Clear
3:35 PM 100.4 °F 102.4 °F 62.6 °F 29% 29.91 in 10.0 mi SE 8.1 mph - N/A   Clear
3:55 PM 100.4 °F 102.4 °F 62.6 °F 29% 29.91 in 10.0 mi ESE 9.2 mph 16.1 mph N/A   Clear
4:15 PM - - - N/A% 29.91 in 10.0 mi ESE 13.8 mph 18.4 mph N/A   Clear
4:35 PM 100.4 °F 101.3 °F 60.8 °F 27% 29.90 in 10.0 mi SE 11.5 mph - N/A   Clear
4:55 PM 100.4 °F 101.3 °F 60.8 °F 27% 29.90 in 10.0 mi SE 10.4 mph - N/A   Clear
5:15 PM - - - N/A% 29.90 in 10.0 mi ESE 5.8 mph - N/A   Clear
5:35 PM - - - N/A% 29.90 in 10.0 mi ESE 9.2 mph - N/A   Clear
5:55 PM - - - N/A% 29.90 in 10.0 mi East 10.4 mph 16.1 mph N/A   Clear
6:15 PM - - - N/A% 29.89 in 10.0 mi ESE 12.7 mph - N/A   Clear
6:35 PM 100.4 °F 101.3 °F 60.8 °F 27% 29.89 in 10.0 mi ESE 8.1 mph - N/A   Clear
6:55 PM 100.4 °F 100.2 °F 59.0 °F 25% 29.89 in 10.0 mi ESE 10.4 mph - N/A   Clear
7:15 PM 100.4 °F 101.3 °F 60.8 °F 27% 29.89 in 10.0 mi ESE 8.1 mph - N/A   Clear
7:35 PM 98.6 °F 99.4 °F 60.8 °F 29% 29.90 in 10.0 mi ESE 8.1 mph - N/A   Clear
7:55 PM 98.6 °F 100.0 °F 62.6 °F 30% 29.90 in 10.0 mi ESE 8.1 mph - N/A   Clear
8:15 PM 96.8 °F 99.0 °F 64.4 °F 34% 29.91 in 10.0 mi ESE 9.2 mph - N/A   Clear
8:35 PM 95.0 °F 97.0 °F 64.4 °F 36% 29.91 in 10.0 mi SE 10.4 mph - N/A   Clear
8:55 PM 91.4 °F 94.0 °F 66.2 °F 43% 29.91 in 10.0 mi SE 10.4 mph - N/A   Clear
9:15 PM 91.4 °F 94.0 °F 66.2 °F 43% 29.92 in 10.0 mi SE 10.4 mph - N/A   Clear
9:35 PM 89.6 °F 92.2 °F 66.2 °F 46% 29.93 in 10.0 mi SE 10.4 mph - N/A   Clear
9:55 PM 89.6 °F 91.1 °F 64.4 °F 43% 29.93 in 10.0 mi ESE 9.2 mph - N/A   Clear
10:15 PM 87.8 °F 90.4 °F 66.2 °F 49% 29.95 in 10.0 mi ESE 11.5 mph - N/A   Clear
10:35 PM 87.8 °F 91.4 °F 68.0 °F 52% 29.95 in 10.0 mi SE 13.8 mph - N/A   Clear
10:55 PM 86.0 °F 89.4 °F 68.0 °F 55% 29.96 in 10.0 mi SE 11.5 mph - N/A   Clear
11:15 PM 86.0 °F 89.4 °F 68.0 °F 55% 29.97 in 10.0 mi ESE 9.2 mph - N/A   Clear
11:35 PM 84.2 °F 87.3 °F 68.0 °F 58% 29.98 in 10.0 mi ESE 9.2 mph - N/A   Clear
11:55 PM 84.2 °F 87.3 °F 68.0 °F 58% 29.99 in 10.0 mi ESE 8.1 mph - N/A   Clear